Change the Weather History Date:

Thursday, October 31, 2013

  Actual Average Record
Temperature  
Mean Temperature 28 °F -  
Max Temperature 30 °F 24 °F 37 °F (2002)
Min Temperature 26 °F 18 °F 1 °F (1999)
Degree Days  
Heating Degree Days 37    
Moisture  
Dew Point 21 °F    
Average Humidity 71    
Maximum Humidity 86    
Minimum Humidity 60    
Precipitation  
Precipitation 0.00 in - - ()
Sea Level Pressure  
Sea Level Pressure 29.72 in    
Wind  
Wind Speed 9 mph (NW)    
Max Wind Speed 15 mph    
Max Gust Speed 26 mph    
Visibility 10 miles    
Events      
Averages and records for this station are not official NWS values.
T = Trace of Precipitation, MM = Missing Value Source: NWS Daily Summary

Daily Weather History Graph

Daily Weather History Graph

Search for Another Location

Airport or City:

Trip Planner

Search our weather history database for the weather conditions in past years. The results will help you decide how hot, cold, wet, or windy it might be!

Date:

Astronomy

Oct. 31, 2013 Rise Set
Actual Time 10:59 AM AKDT 6:34 PM AKDT
Civil Twilight 10:00 AM AKDT 7:33 PM AKDT
Nautical Twilight 8:58 AM AKDT 8:35 PM AKDT
Astronomical Twilight 7:58 AM AKDT 9:35 PM AKDT
Moon 6:56 AM AKDT (10/31) 5:55 PM AKDT (10/31)
Length of Visible Light 9h 32m
Length of Day
7h 35m
Waning Crescent, 9% of the Moon is Illuminated
Oct 31
Waning Crescent
Nov 3
New
Nov 9
First Quarter
Nov 17
Full
Nov 25
Last Quarter

Hourly Weather History & Observations

Time (AKDT) Temp. Windchill Dew Point Humidity Pressure Visibility Wind Dir Wind Speed Gust Speed Precip Events Conditions
12:16 AM 30.2 °F 20.8 °F 23.0 °F 75% 29.58 in 10.0 mi North 11.5 mph 18.4 mph N/A   Overcast
12:36 AM 30.2 °F 21.3 °F 21.2 °F 69% 29.59 in 10.0 mi NNW 10.4 mph - N/A   Overcast
12:56 AM 30.2 °F 20.8 °F 21.2 °F 69% 29.59 in 10.0 mi North 11.5 mph - N/A   Overcast
1:16 AM 30.2 °F 19.8 °F 21.2 °F 69% 29.60 in 10.0 mi NNW 13.8 mph - N/A   Overcast
1:36 AM 30.2 °F 20.2 °F 21.2 °F 69% 29.60 in 10.0 mi North 12.7 mph 17.3 mph N/A   Overcast
1:56 AM 30.2 °F 21.3 °F 21.2 °F 69% 29.60 in 10.0 mi NNW 10.4 mph - N/A   Overcast
2:16 AM 30.2 °F 19.3 °F 21.2 °F 69% 29.60 in 10.0 mi North 15.0 mph - N/A   Overcast
2:36 AM 30.2 °F 20.2 °F 23.0 °F 75% 29.61 in 10.0 mi North 12.7 mph - N/A   Overcast
2:56 AM 30.2 °F 21.9 °F 21.2 °F 69% 29.61 in 10.0 mi NNW 9.2 mph 17.3 mph N/A   Overcast
3:16 AM 30.2 °F 19.3 °F 23.0 °F 75% 29.61 in 10.0 mi North 15.0 mph - N/A   Overcast
3:36 AM 30.2 °F 21.3 °F 23.0 °F 75% 29.62 in 10.0 mi North 10.4 mph - N/A   Overcast
3:56 AM 30.2 °F 21.3 °F 21.2 °F 69% 29.63 in 10.0 mi NNW 10.4 mph - N/A   Overcast
4:16 AM 30.2 °F 20.8 °F 23.0 °F 75% 29.63 in 10.0 mi NNW 11.5 mph - N/A   Overcast
4:36 AM 30.2 °F 19.3 °F 23.0 °F 75% 29.63 in 10.0 mi NNW 15.0 mph - N/A   Overcast
4:56 AM 30.2 °F 19.8 °F 21.2 °F 69% 29.63 in 10.0 mi NNW 13.8 mph - N/A   Overcast
5:16 AM 30.2 °F 20.2 °F 23.0 °F 75% 29.64 in 10.0 mi NNW 12.7 mph - N/A   Overcast
5:36 AM 30.2 °F 19.8 °F 21.2 °F 69% 29.64 in 10.0 mi North 13.8 mph - N/A   Overcast
5:56 AM 30.2 °F 21.3 °F 21.2 °F 69% 29.65 in 10.0 mi NNW 10.4 mph - N/A   Overcast
6:16 AM 30.2 °F 20.8 °F 21.2 °F 69% 29.65 in 10.0 mi North 11.5 mph - N/A   Overcast
6:36 AM 30.2 °F 22.6 °F 23.0 °F 75% 29.66 in 10.0 mi NNW 8.1 mph - N/A   Overcast
6:56 AM 30.2 °F 19.8 °F 23.0 °F 75% 29.66 in 10.0 mi North 13.8 mph - N/A   Overcast
7:16 AM 30.2 °F 23.4 °F 23.0 °F 75% 29.67 in 10.0 mi NNW 6.9 mph - N/A   Overcast
7:36 AM 30.2 °F 23.4 °F 23.0 °F 75% 29.67 in 10.0 mi NNW 6.9 mph - N/A   Overcast
7:56 AM 30.2 °F 21.9 °F 24.8 °F 80% 29.68 in 10.0 mi North 9.2 mph - N/A   Overcast
8:16 AM 30.2 °F 22.6 °F 24.8 °F 80% 29.68 in 10.0 mi NNW 8.1 mph - N/A   Overcast
8:36 AM 30.2 °F 21.3 °F 24.8 °F 80% 29.68 in 10.0 mi North 10.4 mph - N/A   Overcast
8:56 AM 28.4 °F 19.7 °F 24.8 °F 86% 29.69 in 10.0 mi North 9.2 mph - N/A   Overcast
9:36 AM 30.2 °F 21.3 °F 24.8 °F 80% 29.70 in 10.0 mi NNW 10.4 mph - N/A   Overcast
9:56 AM 30.2 °F 22.6 °F 21.2 °F 69% 29.70 in 10.0 mi North 8.1 mph - N/A   Overcast
10:16 AM 30.2 °F 24.3 °F 21.2 °F 69% 29.71 in 10.0 mi NNW 5.8 mph - N/A   Overcast
10:36 AM 30.2 °F 24.3 °F 21.2 °F 69% 29.72 in 10.0 mi NNW 5.8 mph - N/A   Overcast
10:56 AM 30.2 °F 23.4 °F 21.2 °F 69% 29.72 in 10.0 mi NW 6.9 mph - N/A   Overcast
11:16 AM 30.2 °F 24.3 °F 21.2 °F 69% 29.72 in 10.0 mi NNW 5.8 mph - N/A   Overcast
11:36 AM 30.2 °F 24.3 °F 21.2 °F 69% 29.72 in 10.0 mi North 5.8 mph - N/A   Overcast
11:56 AM 30.2 °F 24.3 °F 19.4 °F 64% 29.73 in 10.0 mi NNW 5.8 mph - N/A   Overcast
12:16 PM 30.2 °F 25.4 °F 19.4 °F 64% 29.73 in 10.0 mi NNW 4.6 mph - N/A   Overcast
12:36 PM 30.2 °F - 19.4 °F 64% 29.74 in 10.0 mi Calm Calm - N/A   Overcast
12:56 PM 30.2 °F - 19.4 °F 64% 29.75 in 10.0 mi Calm Calm - N/A   Overcast
1:16 PM 30.2 °F - 17.6 °F 60% 29.75 in 10.0 mi Calm Calm - N/A   Overcast
1:36 PM 30.2 °F 26.7 °F 19.4 °F 64% 29.76 in 10.0 mi WNW 3.5 mph - N/A   Overcast
1:56 PM 30.2 °F 24.3 °F 19.4 °F 64% 29.76 in 10.0 mi North 5.8 mph - N/A   Overcast
2:16 PM 30.2 °F 24.3 °F 17.6 °F 60% 29.76 in 10.0 mi NNW 5.8 mph - N/A   Overcast
2:36 PM 30.2 °F - 17.6 °F 60% 29.77 in 10.0 mi Calm Calm - N/A   Overcast
2:56 PM 30.2 °F 26.7 °F 17.6 °F 60% 29.77 in 10.0 mi West 3.5 mph 26.5 mph N/A   Overcast
3:16 PM 30.2 °F - 17.6 °F 60% 29.77 in 10.0 mi Calm Calm - N/A   Overcast
3:36 PM 30.2 °F - 19.4 °F 64% 29.77 in 10.0 mi Calm Calm - N/A   Overcast
3:56 PM 30.2 °F - 19.4 °F 64% 29.78 in 10.0 mi Calm Calm - N/A   Overcast
4:16 PM 30.2 °F - 17.6 °F 60% 29.78 in 10.0 mi Calm Calm - N/A   Overcast
4:36 PM 30.2 °F 26.7 °F 19.4 °F 64% 29.78 in 10.0 mi SW 3.5 mph - N/A   Overcast
4:56 PM 30.2 °F - 19.4 °F 64% 29.79 in 10.0 mi Calm Calm - N/A   Overcast
5:16 PM 30.2 °F 26.7 °F 19.4 °F 64% 29.79 in 10.0 mi SW 3.5 mph - N/A   Overcast
5:36 PM 28.4 °F 24.6 °F 21.2 °F 74% 29.79 in 10.0 mi SW 3.5 mph - N/A   Overcast
5:56 PM 30.2 °F 25.4 °F 21.2 °F 69% 29.79 in 10.0 mi SW 4.6 mph - N/A   Overcast
6:16 PM 30.2 °F 23.4 °F 21.2 °F 69% 29.80 in 10.0 mi SSW 6.9 mph - N/A   Overcast
6:36 PM 30.2 °F 24.3 °F 21.2 °F 69% 29.80 in 10.0 mi SSW 5.8 mph - N/A   Overcast
6:56 PM 30.2 °F 23.4 °F 21.2 °F 69% 29.80 in 10.0 mi SSW 6.9 mph - N/A   Overcast
7:16 PM 30.2 °F 23.4 °F 21.2 °F 69% 29.80 in 10.0 mi South 6.9 mph - N/A   Overcast
7:36 PM 30.2 °F 24.3 °F 21.2 °F 69% 29.80 in 10.0 mi South 5.8 mph - N/A   Overcast
7:56 PM 28.4 °F 21.2 °F 21.2 °F 74% 29.80 in 10.0 mi South 6.9 mph - N/A   Mostly Cloudy
8:16 PM 28.4 °F 20.4 °F 19.4 °F 69% 29.81 in 10.0 mi South 8.1 mph - N/A   Clear
8:36 PM 28.4 °F 19.7 °F 23.0 °F 80% 29.81 in 10.0 mi South 9.2 mph - N/A   Clear
8:56 PM 28.4 °F 20.4 °F 21.2 °F 74% 29.82 in 10.0 mi SSW 8.1 mph - N/A   Clear
9:16 PM 28.4 °F 21.2 °F 23.0 °F 80% 29.82 in 10.0 mi South 6.9 mph - N/A   Clear
9:36 PM 28.4 °F 21.2 °F 23.0 °F 80% 29.82 in 10.0 mi South 6.9 mph - N/A   Scattered Clouds
9:56 PM 26.6 °F 18.2 °F 23.0 °F 86% 29.83 in 10.0 mi South 8.1 mph - N/A   Mostly Cloudy
10:16 PM 26.6 °F 19.1 °F 21.2 °F 80% 29.83 in 10.0 mi South 6.9 mph - N/A   Mostly Cloudy
10:56 PM 26.6 °F 19.1 °F 21.2 °F 80% 29.83 in 10.0 mi South 6.9 mph - N/A   Partly Cloudy
11:16 PM 26.6 °F 19.1 °F 21.2 °F 80% 29.84 in 10.0 mi South 6.9 mph - N/A   Partly Cloudy
11:36 PM 26.6 °F 19.1 °F 21.2 °F 80% 29.84 in 10.0 mi South 6.9 mph - N/A   Scattered Clouds
11:56 PM 26.6 °F 18.2 °F 21.2 °F 80% 29.84 in 10.0 mi South 8.1 mph - N/A   Partly Cloudy